IBE0140 SBRF-LEMD

Flight info

Callsign IBE0140
Flight time N/A
Altitude 39000
Route FNR B623 RAKUD UB623 CVS UN873 IPERA N873 GDV N858 VASTO UN858 PESAS N858 TLD
Aircraft A332/H-SDE3GHIJ2J3J5M1RVWXY/LB2D1

Departure

Time 2026-04-27 21:17
Airport Recife/Guararapes - Gilberto Freyre International Airport (SBRF)

Arrival

Time N/A
Airport Adolfo Suárez Madrid–Barajas Airport (LEMD)
Time Latitude Longitude Altitude Speed Heading
2026-04-27 21:02 -8.12862 -34.91924 41 ft 0 kts 127°
2026-04-27 21:09 -8.12855 -34.91932 41 ft 3 kts 127°
2026-04-27 21:09 -8.12843 -34.91949 39 ft 3 kts 127°
2026-04-27 21:09 -8.12831 -34.91965 37 ft 3 kts 129°
2026-04-27 21:09 -8.12818 -34.91979 38 ft 3 kts 151°
2026-04-27 21:10 -8.12805 -34.91984 38 ft 2 kts 209°
2026-04-27 21:10 -8.12795 -34.91977 37 ft 3 kts 214°
2026-04-27 21:10 -8.12781 -34.91967 38 ft 2 kts 214°
2026-04-27 21:10 -8.12779 -34.91966 38 ft 1 kts 214°
2026-04-27 21:12 -8.12781 -34.91967 38 ft 2 kts 214°
2026-04-27 21:12 -8.12815 -34.91991 38 ft 9 kts 214°
2026-04-27 21:12 -8.12861 -34.92039 41 ft 9 kts 250°
2026-04-27 21:13 -8.12821 -34.92104 41 ft 15 kts 335°
2026-04-27 21:13 -8.12711 -34.92142 41 ft 18 kts 342°
2026-04-27 21:13 -8.12582 -34.92184 40 ft 21 kts 342°
2026-04-27 21:13 -8.12436 -34.92232 39 ft 21 kts 342°
2026-04-27 21:14 -8.12286 -34.92282 39 ft 25 kts 341°
2026-04-27 21:14 -8.12126 -34.92334 38 ft 26 kts 342°
2026-04-27 21:14 -8.12006 -34.92375 37 ft 13 kts 341°
2026-04-27 21:14 -8.11901 -34.92409 36 ft 18 kts 342°
2026-04-27 21:15 -8.11783 -34.92449 36 ft 17 kts 341°
2026-04-27 21:15 -8.11673 -34.92484 36 ft 16 kts 341°
2026-04-27 21:15 -8.11568 -34.92548 36 ft 20 kts 322°
2026-04-27 21:15 -8.11465 -34.92636 36 ft 17 kts 308°
2026-04-27 21:16 -8.11468 -34.92688 36 ft 6 kts 218°
2026-04-27 21:16 -8.11505 -34.92688 35 ft 7 kts 172°
2026-04-27 21:16 -8.11533 -34.92680 35 ft 7 kts 162°
2026-04-27 21:16 -8.11781 -34.92598 35 ft 66 kts 162°
2026-04-27 21:17 -8.12380 -34.92400 40 ft 113 kts 162°
2026-04-27 21:17 -8.13261 -34.92108 53 ft 152 kts 162°
2026-04-27 21:17 -8.14312 -34.91754 383 ft 165 kts 164°
2026-04-27 21:17 -8.15441 -34.91393 870 ft 167 kts 163°
2026-04-27 21:18 -8.16476 -34.91059 1750 ft 149 kts 161°
2026-04-27 21:18 -8.17491 -34.90732 2215 ft 161 kts 161°
2026-04-27 21:18 -8.18629 -34.90364 2412 ft 183 kts 161°
2026-04-27 21:18 -8.19858 -34.89825 2632 ft 203 kts 146°
2026-04-27 21:19 -8.20762 -34.88655 2785 ft 228 kts 109°
2026-04-27 21:19 -8.20720 -34.87005 3018 ft 252 kts 71°
2026-04-27 21:19 -8.19785 -34.85448 3487 ft 266 kts 55°
2026-04-27 21:20 -8.17537 -34.82492 5057 ft 268 kts 55°
2026-04-27 21:20 -8.16417 -34.80979 5851 ft 269 kts 56°
2026-04-27 21:20 -8.15307 -34.79446 6593 ft 272 kts 56°
2026-04-27 21:20 -8.14194 -34.77887 7296 ft 276 kts 56°
2026-04-27 21:21 -8.13070 -34.76304 8037 ft 279 kts 56°
2026-04-27 21:21 -8.11939 -34.74706 8795 ft 281 kts 56°
2026-04-27 21:21 -8.10796 -34.73088 9543 ft 284 kts 56°
2026-04-27 21:21 -8.09644 -34.71456 10247 ft 289 kts 56°
2026-04-27 21:22 -8.08419 -34.69764 10538 ft 308 kts 55°
2026-04-27 21:22 -8.07092 -34.67976 10796 ft 328 kts 54°
2026-04-27 21:22 -8.05690 -34.66100 11177 ft 340 kts 54°
2026-04-27 21:22 -8.04255 -34.64183 11747 ft 345 kts 54°
2026-04-27 21:23 -8.02802 -34.62242 12364 ft 348 kts 54°
2026-04-27 21:23 -8.01336 -34.60282 12969 ft 352 kts 54°
2026-04-27 21:23 -7.99857 -34.58304 13594 ft 355 kts 55°
2026-04-27 21:23 -7.98364 -34.56308 14147 ft 358 kts 55°
2026-04-27 21:24 -7.96857 -34.54293 14669 ft 361 kts 55°
2026-04-27 21:24 -7.95315 -34.52285 15204 ft 364 kts 51°
2026-04-27 21:24 -7.93510 -34.50478 15744 ft 369 kts 41°
2026-04-27 21:24 -7.91351 -34.49045 16251 ft 374 kts 31°
2026-04-27 21:25 -7.89037 -34.47823 16769 ft 377 kts 29°
2026-04-27 21:25 -7.86681 -34.46629 17253 ft 380 kts 29°
2026-04-27 21:25 -7.84306 -34.45427 17740 ft 383 kts 29°
2026-04-27 21:25 -7.81918 -34.44214 18217 ft 386 kts 29°
2026-04-27 21:26 -7.79513 -34.42988 18630 ft 389 kts 29°
2026-04-27 21:26 -7.77095 -34.41752 19044 ft 391 kts 29°
2026-04-27 21:26 -7.74664 -34.40509 19454 ft 393 kts 30°
2026-04-27 21:26 -7.72222 -34.39259 19873 ft 395 kts 30°
2026-04-27 21:27 -7.69769 -34.38003 20281 ft 396 kts 30°
2026-04-27 21:27 -7.67302 -34.36741 20701 ft 398 kts 30°
2026-04-27 21:27 -7.64825 -34.35473 21090 ft 400 kts 30°
2026-04-27 21:27 -7.62335 -34.34198 21484 ft 403 kts 30°
2026-04-27 21:28 -7.59831 -34.32917 21886 ft 404 kts 30°
2026-04-27 21:28 -7.57315 -34.31629 22270 ft 406 kts 30°
2026-04-27 21:28 -7.54786 -34.30335 22674 ft 409 kts 30°
2026-04-27 21:28 -7.52247 -34.29036 23069 ft 411 kts 30°
2026-04-27 21:29 -7.49692 -34.27729 23472 ft 412 kts 30°
2026-04-27 21:29 -7.47130 -34.26419 23807 ft 414 kts 30°
2026-04-27 21:29 -7.44550 -34.25100 24105 ft 417 kts 30°
2026-04-27 21:29 -7.41953 -34.23772 24393 ft 420 kts 30°
2026-04-27 21:30 -7.39379 -34.22455 24700 ft 422 kts 30°
2026-04-27 21:30 -7.36722 -34.21097 24995 ft 424 kts 31°
2026-04-27 21:30 -7.34086 -34.19751 25312 ft 426 kts 31°
2026-04-27 21:30 -7.31471 -34.18414 25595 ft 428 kts 30°
2026-04-27 21:31 -7.28807 -34.17053 25882 ft 430 kts 30°
2026-04-27 21:31 -7.26128 -34.15684 26167 ft 433 kts 30°
2026-04-27 21:31 -7.23437 -34.14309 26439 ft 435 kts 30°
2026-04-27 21:31 -7.20734 -34.12929 26757 ft 437 kts 30°
2026-04-27 21:32 -7.18019 -34.11542 27044 ft 439 kts 30°
2026-04-27 21:32 -7.15287 -34.10147 27309 ft 441 kts 30°
2026-04-27 21:32 -7.12546 -34.08748 27578 ft 443 kts 30°
2026-04-27 21:32 -7.09786 -34.07339 27850 ft 446 kts 30°
2026-04-27 21:33 -7.07014 -34.05924 28116 ft 448 kts 30°
2026-04-27 21:33 -7.04229 -34.04502 28382 ft 450 kts 30°
2026-04-27 21:33 -7.01427 -34.03072 28636 ft 452 kts 30°
2026-04-27 21:33 -6.98616 -34.01638 28893 ft 454 kts 30°
2026-04-27 21:34 -6.95790 -34.00197 29144 ft 456 kts 30°
2026-04-27 21:34 -6.92952 -33.98749 29395 ft 458 kts 30°
2026-04-27 21:34 -6.90100 -33.97295 29643 ft 460 kts 30°
2026-04-27 21:34 -6.87241 -33.95837 29899 ft 462 kts 30°
2026-04-27 21:35 -6.84366 -33.94371 30112 ft 464 kts 30°
2026-04-27 21:35 -6.81479 -33.92899 30311 ft 466 kts 30°
2026-04-27 21:35 -6.78579 -33.91421 30509 ft 468 kts 30°
2026-04-27 21:35 -6.75670 -33.89939 30703 ft 470 kts 30°
2026-04-27 21:36 -6.72752 -33.88451 30897 ft 471 kts 30°
2026-04-27 21:36 -6.69821 -33.86958 31093 ft 473 kts 30°
2026-04-27 21:36 -6.66883 -33.85462 31286 ft 474 kts 30°
2026-04-27 21:36 -6.63936 -33.83960 31482 ft 476 kts 30°
2026-04-27 21:37 -6.61017 -33.82474 31669 ft 477 kts 30°
2026-04-27 21:37 -6.58050 -33.80963 31865 ft 479 kts 30°
2026-04-27 21:37 -6.56040 -33.79939 32007 ft 479 kts 30°
2026-04-27 21:37 -6.52099 -33.77933 32364 ft 479 kts 30°
2026-04-27 21:38 -6.50097 -33.76915 32552 ft 478 kts 30°
2026-04-27 21:38 -6.46164 -33.74913 32907 ft 478 kts 30°
2026-04-27 21:38 -6.44162 -33.73894 33083 ft 477 kts 30°
2026-04-27 21:38 -6.41200 -33.72387 33345 ft 477 kts 30°
2026-04-27 21:39 -6.38239 -33.70880 33612 ft 477 kts 29°
2026-04-27 21:39 -6.35279 -33.69375 33882 ft 476 kts 29°
2026-04-27 21:39 -6.32329 -33.67874 34158 ft 475 kts 30°
2026-04-27 21:39 -6.29389 -33.66379 34471 ft 472 kts 29°
2026-04-27 21:40 -6.26507 -33.64914 34754 ft 470 kts 29°
2026-04-27 21:40 -6.23560 -33.63415 35024 ft 468 kts 29°
2026-04-27 21:40 -6.20657 -33.61940 35276 ft 466 kts 29°
2026-04-27 21:40 -6.17766 -33.60470 35534 ft 465 kts 29°
2026-04-27 21:41 -6.14925 -33.59026 35786 ft 464 kts 29°
2026-04-27 21:41 -6.12050 -33.57564 36017 ft 462 kts 28°
2026-04-27 21:41 -6.09183 -33.56107 36262 ft 461 kts 28°
2026-04-27 21:41 -6.06327 -33.54656 36487 ft 460 kts 28°
2026-04-27 21:42 -6.03476 -33.53208 36714 ft 459 kts 28°
2026-04-27 21:42 -6.00630 -33.51762 36938 ft 458 kts 28°
2026-04-27 21:42 -5.97792 -33.50320 37143 ft 457 kts 28°
2026-04-27 21:42 -5.94957 -33.48880 37363 ft 456 kts 28°
2026-04-27 21:43 -5.92131 -33.47445 37577 ft 455 kts 28°
2026-04-27 21:43 -5.89310 -33.46013 37772 ft 454 kts 28°
2026-04-27 21:43 -5.86499 -33.44586 37980 ft 453 kts 28°
2026-04-27 21:43 -5.83691 -33.43160 38185 ft 452 kts 28°
2026-04-27 21:44 -5.80891 -33.41739 38385 ft 450 kts 28°
2026-04-27 21:44 -5.78101 -33.40323 38598 ft 449 kts 28°
2026-04-27 21:44 -5.75314 -33.38909 38766 ft 448 kts 27°
2026-04-27 21:44 -5.72536 -33.37499 38893 ft 448 kts 27°
2026-04-27 21:45 -5.66973 -33.34677 38984 ft 448 kts 28°
2026-04-27 21:45 -5.61424 -33.31862 38984 ft 446 kts 28°
2026-04-27 21:46 -5.55883 -33.29052 38984 ft 446 kts 28°
2026-04-27 21:46 -5.50345 -33.26244 38984 ft 446 kts 28°
2026-04-27 21:47 -5.44804 -33.23436 38983 ft 446 kts 28°
2026-04-27 21:47 -5.39261 -33.20627 38984 ft 446 kts 28°
2026-04-27 21:48 -5.33711 -33.17814 38978 ft 447 kts 28°
2026-04-27 21:48 -5.28153 -33.14999 38981 ft 447 kts 28°
2026-04-27 21:49 -5.22594 -33.12183 38988 ft 447 kts 28°
2026-04-27 21:49 -5.17036 -33.09369 38988 ft 448 kts 28°
2026-04-27 21:50 -5.11474 -33.06553 38985 ft 448 kts 28°
2026-04-27 21:50 -5.05909 -33.03736 38988 ft 449 kts 28°
2026-04-27 21:51 -5.00363 -33.00929 38981 ft 450 kts 28°
2026-04-27 21:51 -4.94770 -32.98099 38982 ft 450 kts 28°
2026-04-27 21:52 -4.89181 -32.95272 38985 ft 450 kts 28°
2026-04-27 21:52 -4.83591 -32.92445 38983 ft 450 kts 28°
2026-04-27 21:53 -4.77999 -32.89617 38985 ft 450 kts 28°
2026-04-27 21:53 -4.72393 -32.86783 38981 ft 452 kts 28°
2026-04-27 21:54 -4.66772 -32.83941 38984 ft 453 kts 28°
2026-04-27 21:54 -4.61142 -32.81096 38981 ft 453 kts 28°
2026-04-27 21:55 -4.55516 -32.78253 38983 ft 453 kts 28°
2026-04-27 21:55 -4.49888 -32.75409 38986 ft 453 kts 28°
2026-04-27 21:56 -4.41448 -32.71146 38979 ft 454 kts 28°
2026-04-27 21:57 -4.35812 -32.68300 38983 ft 458 kts 28°
2026-04-27 21:57 -4.30141 -32.65436 38988 ft 452 kts 28°